Location: Eppenbrunn
(49.1158°N, 7.5601°E)
Time: 11:12:43
(UTC+00:00)

Cosmos 1833 Rocket - Pass Details

Date: 09 April 2020
Orbit: 834 x 838 km, 71.0° (Epoch: 24 May)

Event Time Altitude Azimuth Distance (km) Brightness Sun altitude
Exits shadow 20:39:09 37° 91° (E) 1,294 3.3 -21.6°
Drops below altitude 10° 20:43:38 10° 41° (NE) 2,460 5.1 -22.2°
Sets 20:46:14 0° 34° (NE) 3,399 6.0 -22.5°
